Voltar ao catálogo

STARLINK-35116

AtivoComunicaçõesVLEO
NORAD 66078·PAYLOAD·🇺🇸 United States

Lançado Oct 19, 2025 de Cape Canaveral Space Force Station

Loading…

Próximas Passagens (próximas 24 horas)

TLE

AtualizadoSource: CelesTrak SupGP

Época: Sep 14, 2026, 15:47 UTC

1 66078C 25235W   26257.65812500 -.00034067  00000+0 -10066-2 0  2576
2 66078  53.1567  85.0074 0001249  93.8726  95.7859 15.34406892    17

Acompanhe STARLINK-35116 em tempo real com AllMySat

Download on the App Store